Location: Round Knob
(37.2473°N, 88.7376°W)
Time: 02:06:35
(UTC+00:00)

BlueWalker 3 - Visible Passes

Search period start: 29 November 2022 00:00
Search period end: 09 December 2022 00:00
Orbit: 500 x 519 km, 53.2° (Epoch: 28 November)

Date Brightness Start Highest point End Pass type
(mag) Time Alt. Az. Time Alt. Az. Time Alt. Az.
29 Nov 4.4 23:13:51 10° NW 23:15:38 13° NNW 23:17:26 10° N visible
06 Dec 4.7 00:43:19 10° NNW 00:43:21 10° NNW 00:43:21 10° NNW visible
07 Dec 4.2 00:24:52 10° NNW 00:25:53 14° N 00:25:53 14° N visible
08 Dec 3.7 00:06:24 10° NNW 00:08:31 18° NNE 00:08:31 18° NNE visible
08 Dec 3.4 23:47:56 10° NNW 23:50:55 20° NNE 23:51:17 20° NE visible
